Time,TemperatureF,DewpointF,PressureIn,WindDirection,WindDirectionDegrees,WindSpeedMPH,WindSpeedGustMPH,Humidity,HourlyPrecipIn,Conditions,Clouds,dailyrainin,SoftwareType,DateUTC
2013-01-08 00:03:00,55.0,55.0,29.99,NNE,27,6.8,11.1,100,0.03,RA,,0.00,WeatherDisplay:10.37,2013-01-08 06:03:00,
2013-01-08 00:08:00,55.0,55.0,29.99,ENE,59,7.7,15.0,100,0.03,RA,,0.00,WeatherDisplay:10.37,2013-01-08 06:08:00,
2013-01-08 00:13:00,55.0,55.0,29.98,ENE,68,8.1,13.8,100,0.03,CLR,,0.00,WeatherDisplay:10.37,2013-01-08 06:13:00,
2013-01-08 00:18:00,55.1,55.1,29.98,North,3,8.9,12.7,100,0.03,CLR,,0.00,WeatherDisplay:10.37,2013-01-08 06:18:00,
2013-01-08 00:23:00,55.3,55.3,29.98,ENE,76,7.2,11.5,100,0.02,CLR,,0.00,WeatherDisplay:10.37,2013-01-08 06:23:00,
2013-01-08 00:28:00,55.6,55.6,29.98,ENE,64,5.8,8.1,100,0.02,CLR,,0.00,WeatherDisplay:10.37,2013-01-08 06:28:00,
2013-01-08 00:33:00,55.6,55.6,29.98,ENE,59,4.6,8.1,100,0.02,CLR,,0.00,WeatherDisplay:10.37,2013-01-08 06:33:00,
2013-01-08 00:38:00,55.5,55.5,29.97,NE,54,6.7,12.7,100,0.01,CLR,,0.00,WeatherDisplay:10.37,2013-01-08 06:38:00,
2013-01-08 00:43:00,55.7,55.7,29.97,NE,40,6.1,9.2,100,0.00,CLR,,0.00,WeatherDisplay:10.37,2013-01-08 06:43:00,
2013-01-08 00:48:00,55.8,55.8,29.97,ENE,66,4.7,8.1,100,0.00,CLR,,0.00,WeatherDisplay:10.37,2013-01-08 06:48:00,
2013-01-08 00:53:00,56.0,56.0,29.97,ENE,71,7.7,10.1,100,0.00,CLR,,0.00,WeatherDisplay:10.37,2013-01-08 06:53:00,
2013-01-08 00:58:00,56.0,56.0,29.96,ENE,59,5.7,13.9,100,0.00,CLR,,0.00,WeatherDisplay:10.37,2013-01-08 06:58:00,
2013-01-08 01:03:00,56.1,56.1,29.96,NE,56,7.3,11.5,100,0.00,CLR,,0.00,WeatherDisplay:10.37,2013-01-08 07:03:00,
2013-01-08 01:08:00,56.1,56.1,29.96,NE,35,5.3,8.1,100,0.00,CLR,,0.00,WeatherDisplay:10.37,2013-01-08 07:08:00,
2013-01-08 01:13:00,56.1,56.1,29.96,East,83,8.1,13.8,100,0.00,CLR,,0.00,WeatherDisplay:10.37,2013-01-08 07:13:00,
2013-01-08 01:18:00,56.1,56.1,29.96,NE,35,5.9,10.4,100,0.00,CLR,,0.00,WeatherDisplay:10.37,2013-01-08 07:18:00,
2013-01-08 01:23:00,56.1,56.1,29.96,NNE,17,7.2,11.5,100,0.00,CLR,,0.00,WeatherDisplay:10.37,2013-01-08 07:23:00,
2013-01-08 01:28:00,56.1,56.1,29.96,ENE,66,6.9,11.5,100,0.00,CLR,,0.00,WeatherDisplay:10.37,2013-01-08 07:28:00,
2013-01-08 01:33:00,56.1,56.1,29.96,NE,41,5.6,10.4,100,0.00,CLR,,0.00,WeatherDisplay:10.37,2013-01-08 07:33:00,
2013-01-08 01:38:00,56.1,56.1,29.95,NE,41,6.4,13.0,100,0.00,CLR,,0.00,WeatherDisplay:10.37,2013-01-08 07:38:00,
2013-01-08 01:43:00,56.0,56.0,29.95,NE,37,8.1,12.7,100,0.00,CLR,,0.00,WeatherDisplay:10.37,2013-01-08 07:43:00,
2013-01-08 01:48:00,56.2,56.2,29.95,North,1,5.3,9.2,100,0.00,CLR,,0.00,WeatherDisplay:10.37,2013-01-08 07:48:00,
2013-01-08 01:53:00,56.2,56.2,29.95,NE,56,5.8,11.5,100,0.00,CLR,,0.00,WeatherDisplay:10.37,2013-01-08 07:53:00,
2013-01-08 01:58:00,56.1,56.1,29.95,ENE,61,4.5,8.1,100,0.00,CLR,,0.00,WeatherDisplay:10.37,2013-01-08 07:58:00,
2013-01-08 02:03:00,56.1,56.1,29.95,NNE,16,4.7,10.4,100,0.00,CLR,,0.00,WeatherDisplay:10.37,2013-01-08 08:03:00,
2013-01-08 02:08:00,56.1,56.1,29.95,ENE,69,6.3,11.5,100,0.00,CLR,,0.00,WeatherDisplay:10.37,2013-01-08 08:08:00,
2013-01-08 02:13:00,56.0,56.0,29.95,NE,54,6.9,9.2,100,0.00,CLR,,0.00,WeatherDisplay:10.37,2013-01-08 08:13:00,
2013-01-08 02:18:00,56.0,56.0,29.95,NE,34,6.8,10.4,100,0.00,CLR,,0.00,WeatherDisplay:10.37,2013-01-08 08:18:00,
2013-01-08 02:23:00,55.9,55.9,29.95,East,82,5.5,8.1,100,0.00,CLR,,0.00,WeatherDisplay:10.37,2013-01-08 08:23:00,
2013-01-08 02:28:00,56.0,56.0,29.95,ENE,64,6.6,9.2,100,0.00,CLR,,0.00,WeatherDisplay:10.37,2013-01-08 08:28:00,
2013-01-08 02:33:00,55.8,55.8,29.95,NNE,13,6.2,10.4,100,0.00,CLR,,0.00,WeatherDisplay:10.37,2013-01-08 08:33:00,
2013-01-08 02:38:00,55.9,55.9,29.95,East,93,5.6,9.2,100,0.00,CLR,,0.00,WeatherDisplay:10.37,2013-01-08 08:38:00,
2013-01-08 02:43:00,55.9,55.9,29.95,NNE,14,5.2,8.1,100,0.00,CLR,,0.00,WeatherDisplay:10.37,2013-01-08 08:43:00,
2013-01-08 02:48:00,55.9,55.9,29.96,NE,54,5.0,9.2,100,0.00,CLR,,0.00,WeatherDisplay:10.37,2013-01-08 08:48:00,
2013-01-08 02:53:00,55.9,55.9,29.96,NW,311,5.0,8.1,100,0.00,CLR,,0.00,WeatherDisplay:10.37,2013-01-08 08:53:00,
2013-01-08 02:58:00,56.0,56.0,29.96,NE,48,4.4,6.9,100,0.00,CLR,,0.00,WeatherDisplay:10.37,2013-01-08 08:58:00,
2013-01-08 03:03:00,55.8,55.8,29.96,NNE,30,6.3,9.2,100,0.00,CLR,,0.00,WeatherDisplay:10.37,2013-01-08 09:03:00,
2013-01-08 03:08:00,55.9,55.9,29.96,North,10,4.9,9.2,100,0.00,CLR,,0.00,WeatherDisplay:10.37,2013-01-08 09:08:00,
2013-01-08 03:13:00,56.0,56.0,29.96,NNE,13,5.7,10.2,100,0.00,CLR,,0.00,WeatherDisplay:10.37,2013-01-08 09:13:00,
2013-01-08 03:18:00,56.0,56.0,29.96,NE,48,4.6,10.4,100,0.00,CLR,,0.00,WeatherDisplay:10.37,2013-01-08 09:18:00,
2013-01-08 03:23:00,56.1,56.1,29.95,NNE,21,6.0,9.2,100,0.00,CLR,,0.00,WeatherDisplay:10.37,2013-01-08 09:23:00,
2013-01-08 03:28:00,56.0,56.0,29.96,NNE,30,6.8,9.2,100,0.00,CLR,,0.00,WeatherDisplay:10.37,2013-01-08 09:28:00,
2013-01-08 03:33:00,56.1,56.1,29.96,NE,47,4.1,6.9,100,0.00,CLR,,0.00,WeatherDisplay:10.37,2013-01-08 09:33:00,
2013-01-08 03:38:00,56.1,56.1,29.96,NE,42,6.2,9.2,100,0.00,CLR,,0.00,WeatherDisplay:10.37,2013-01-08 09:38:00,
2013-01-08 03:43:00,56.0,56.0,29.95,NE,48,4.2,6.9,100,0.00,CLR,,0.00,WeatherDisplay:10.37,2013-01-08 09:43:00,
2013-01-08 03:47:00,56.1,56.1,29.95,North,353,5.7,7.5,100,0.00,CLR,,0.00,WeatherDisplay:10.37,2013-01-08 09:47:00,
2013-01-08 03:51:00,56.1,56.1,29.96,North,10,4.7,8.1,100,0.00,CLR,,0.00,WeatherDisplay:10.37,2013-01-08 09:51:00,
2013-01-08 03:56:00,56.2,56.2,29.95,East,92,4.2,6.9,100,0.01,RA,,0.01,WeatherDisplay:10.37,2013-01-08 09:56:00,
2013-01-08 04:01:00,56.4,56.4,29.93,ENE,65,8.2,11.6,100,0.01,RA,,0.01,WeatherDisplay:10.37,2013-01-08 10:01:00,
2013-01-08 04:06:00,56.0,56.0,29.92,NE,45,9.1,16.1,100,0.01,CLR,,0.01,WeatherDisplay:10.37,2013-01-08 10:06:00,
2013-01-08 04:11:00,55.8,55.8,29.93,NNE,28,10.3,13.8,100,0.01,CLR,,0.01,WeatherDisplay:10.37,2013-01-08 10:11:00,
2013-01-08 04:16:00,55.5,55.5,29.92,ENE,65,8.1,11.5,100,0.01,CLR,,0.02,WeatherDisplay:10.37,2013-01-08 10:16:00,
2013-01-08 04:21:00,55.0,55.0,29.90,East,85,10.2,14.5,100,0.05,RA,,0.05,WeatherDisplay:10.37,2013-01-08 10:21:00,
2013-01-08 04:26:00,54.7,54.7,29.89,ENE,69,9.9,12.7,100,0.06,RA,,0.06,WeatherDisplay:10.37,2013-01-08 10:26:00,
2013-01-08 04:31:00,54.9,54.9,29.88,ENE,73,10.3,16.1,100,0.06,RA,,0.06,WeatherDisplay:10.37,2013-01-08 10:31:00,
2013-01-08 04:36:00,54.7,54.7,29.89,East,82,11.5,17.3,100,0.06,,,0.06,WeatherDisplay:10.37,2013-01-08 10:36:00,
2013-01-08 04:41:00,55.0,55.0,29.88,ENE,76,10.1,15.0,100,0.06,CLR,,0.06,WeatherDisplay:10.37,2013-01-08 10:41:00,
2013-01-08 04:46:00,55.1,55.1,29.88,NE,49,8.9,13.8,100,0.07,RA,,0.07,WeatherDisplay:10.37,2013-01-08 10:46:00,
2013-01-08 04:51:00,55.1,55.1,29.87,NE,56,8.6,9.6,100,0.08,RA,,0.08,WeatherDisplay:10.37,2013-01-08 10:51:00,
2013-01-08 04:56:00,55.2,55.2,29.87,East,100,7.2,11.5,100,0.07,RA,,0.08,WeatherDisplay:10.37,2013-01-08 10:56:00,
2013-01-08 05:02:00,55.9,55.9,29.87,NE,45,7.5,10.4,100,0.08,RA,,0.09,WeatherDisplay:10.37,2013-01-08 11:02:00,
2013-01-08 05:07:00,56.3,56.3,29.87,NE,37,4.0,6.9,100,0.08,RA,,0.09,WeatherDisplay:10.37,2013-01-08 11:07:00,
2013-01-08 05:12:00,56.6,56.6,29.88,NE,37,4.5,5.8,100,0.08,CLR,,0.09,WeatherDisplay:10.37,2013-01-08 11:12:00,
2013-01-08 05:17:00,56.4,56.4,29.87,NE,35,3.3,4.6,100,0.07,CLR,,0.09,WeatherDisplay:10.37,2013-01-08 11:17:00,
2013-01-08 05:22:00,56.6,56.6,29.88,NNE,30,2.9,5.8,100,0.04,CLR,,0.09,WeatherDisplay:10.37,2013-01-08 11:22:00,
2013-01-08 05:27:00,56.8,56.8,29.88,North,7,3.4,4.6,100,0.03,CLR,,0.09,WeatherDisplay:10.37,2013-01-08 11:27:00,
2013-01-08 05:32:00,56.5,56.5,29.88,North,4,3.2,4.6,100,0.03,CLR,,0.09,WeatherDisplay:10.37,2013-01-08 11:32:00,
2013-01-08 05:37:00,56.5,56.5,29.88,NNW,347,3.8,5.1,100,0.03,CLR,,0.09,WeatherDisplay:10.37,2013-01-08 11:37:00,
2013-01-08 05:42:00,56.7,56.7,29.89,NE,40,2.2,3.5,100,0.03,CLR,,0.09,WeatherDisplay:10.37,2013-01-08 11:42:00,
2013-01-08 05:47:00,56.5,56.5,29.88,NE,41,1.0,2.4,100,0.02,CLR,,0.09,WeatherDisplay:10.37,2013-01-08 11:47:00,
2013-01-08 05:52:00,56.8,56.8,29.88,NE,48,4.1,6.9,100,0.01,CLR,,0.09,WeatherDisplay:10.37,2013-01-08 11:52:00,
2013-01-08 05:57:00,56.7,56.7,29.88,NE,38,5.3,6.9,100,0.01,CLR,,0.09,WeatherDisplay:10.37,2013-01-08 11:57:00,
2013-01-08 06:02:00,56.6,56.6,29.88,ENE,66,3.6,5.8,100,0.00,CLR,,0.09,WeatherDisplay:10.37,2013-01-08 12:02:00,
2013-01-08 06:07:00,56.8,56.8,29.88,NE,54,3.2,5.8,100,0.00,CLR,,0.09,WeatherDisplay:10.37,2013-01-08 12:07:00,
2013-01-08 06:12:00,56.6,56.6,29.88,East,89,3.2,5.8,100,0.00,CLR,,0.09,WeatherDisplay:10.37,2013-01-08 12:12:00,
2013-01-08 06:17:00,56.5,56.5,29.89,NNE,16,1.1,4.6,100,0.00,CLR,,0.09,WeatherDisplay:10.37,2013-01-08 12:17:00,
2013-01-08 06:22:00,56.4,56.4,29.89,NE,35,3.7,5.8,100,0.00,CLR,,0.09,WeatherDisplay:10.37,2013-01-08 12:22:00,
2013-01-08 06:27:00,56.3,56.3,29.89,NE,55,1.0,2.3,100,0.00,CLR,,0.09,WeatherDisplay:10.37,2013-01-08 12:27:00,
2013-01-08 06:32:00,56.3,56.3,29.89,NE,51,3.3,5.5,100,0.00,CLR,,0.09,WeatherDisplay:10.37,2013-01-08 12:32:00,
2013-01-08 06:37:00,56.2,56.2,29.88,NE,54,4.6,5.8,100,0.00,CLR,,0.09,WeatherDisplay:10.37,2013-01-08 12:37:00,
2013-01-08 06:42:00,56.3,56.3,29.88,NNE,31,5.0,8.1,100,0.00,CLR,,0.09,WeatherDisplay:10.37,2013-01-08 12:42:00,
2013-01-08 06:47:00,56.3,56.3,29.88,East,82,3.0,5.8,100,0.00,CLR,,0.09,WeatherDisplay:10.37,2013-01-08 12:47:00,
2013-01-08 06:52:00,56.5,56.5,29.88,ENE,62,2.9,5.8,100,0.00,CLR,,0.09,WeatherDisplay:10.37,2013-01-08 12:52:00,
2013-01-08 06:57:00,56.6,56.6,29.88,ENE,66,2.5,5.8,100,0.00,CLR,,0.09,WeatherDisplay:10.37,2013-01-08 12:57:00,
2013-01-08 07:02:00,56.7,56.7,29.88,NE,45,3.1,5.8,100,0.00,CLR,,0.09,WeatherDisplay:10.37,2013-01-08 13:02:00,
2013-01-08 07:07:00,56.8,56.8,29.88,NE,54,4.1,4.1,100,0.00,CLR,,0.09,WeatherDisplay:10.37,2013-01-08 13:07:00,
2013-01-08 07:12:00,57.1,57.1,29.89,NW,311,1.7,2.3,100,0.00,CLR,,0.09,WeatherDisplay:10.37,2013-01-08 13:12:00,
2013-01-08 07:17:00,57.2,57.2,29.89,NW,320,0.7,2.8,100,0.00,CLR,,0.09,WeatherDisplay:10.37,2013-01-08 13:17:00,
2013-01-08 07:22:00,57.3,57.3,29.89,North,7,0.8,2.3,100,0.00,CLR,,0.09,WeatherDisplay:10.37,2013-01-08 13:22:00,
2013-01-08 07:27:00,57.6,57.6,29.90,North,1,1.3,3.5,100,0.00,CLR,,0.09,WeatherDisplay:10.37,2013-01-08 13:27:00,
2013-01-08 07:32:00,57.7,57.7,29.90,NNE,21,0.5,3.5,100,0.00,CLR,,0.09,WeatherDisplay:10.37,2013-01-08 13:32:00,
2013-01-08 07:37:00,57.8,57.8,29.90,NNE,13,1.3,3.5,100,0.00,CLR,,0.09,WeatherDisplay:10.37,2013-01-08 13:37:00,
2013-01-08 07:42:00,58.1,58.1,29.90,NE,40,1.5,2.3,100,0.00,CLR,,0.09,WeatherDisplay:10.37,2013-01-08 13:42:00,
2013-01-08 07:47:00,58.4,58.4,29.91,North,8,2.0,4.6,100,0.00,CLR,,0.09,WeatherDisplay:10.37,2013-01-08 13:47:00,
2013-01-08 07:52:00,58.7,58.7,29.91,NNW,347,1.4,5.8,100,0.00,CLR,,0.09,WeatherDisplay:10.37,2013-01-08 13:52:00,
2013-01-08 07:57:00,58.9,58.9,29.90,North,3,2.6,6.9,100,0.00,CLR,,0.09,WeatherDisplay:10.37,2013-01-08 13:57:00,
2013-01-08 08:02:00,59.1,59.1,29.91,North,359,3.4,5.8,100,0.00,CLR,,0.09,WeatherDisplay:10.37,2013-01-08 14:02:00,
2013-01-08 08:07:00,59.2,59.2,29.91,NE,51,3.5,5.8,100,0.00,CLR,,0.09,WeatherDisplay:10.37,2013-01-08 14:07:00,
2013-01-08 08:12:00,59.3,59.3,29.92,NE,42,1.8,4.6,100,0.00,CLR,,0.09,WeatherDisplay:10.37,2013-01-08 14:12:00,
2013-01-08 08:17:00,59.5,59.5,29.92,North,11,1.2,3.5,100,0.00,CLR,,0.09,WeatherDisplay:10.37,2013-01-08 14:17:00,
2013-01-08 08:22:00,59.5,59.5,29.91,NNE,30,2.7,3.5,100,0.00,CLR,,0.09,WeatherDisplay:10.37,2013-01-08 14:22:00,
2013-01-08 08:27:00,59.9,59.9,29.91,NE,54,3.0,4.6,100,0.00,CLR,,0.09,WeatherDisplay:10.37,2013-01-08 14:27:00,
2013-01-08 08:32:00,60.1,60.1,29.92,NNW,342,3.1,5.1,100,0.00,CLR,,0.09,WeatherDisplay:10.37,2013-01-08 14:32:00,
2013-01-08 08:37:00,60.1,60.1,29.91,North,1,4.0,6.9,100,0.00,CLR,,0.09,WeatherDisplay:10.37,2013-01-08 14:37:00,
2013-01-08 08:42:00,60.5,60.5,29.91,North,0,3.0,5.8,100,0.00,CLR,,0.09,WeatherDisplay:10.37,2013-01-08 14:42:00,
2013-01-08 08:47:00,60.6,60.6,29.91,North,1,1.6,3.5,100,0.00,CLR,,0.09,WeatherDisplay:10.37,2013-01-08 14:47:00,
2013-01-08 08:52:00,60.5,60.5,29.91,NNE,23,2.2,3.5,100,0.00,CLR,,0.09,WeatherDisplay:10.37,2013-01-08 14:52:00,
2013-01-08 08:57:00,60.9,60.9,29.91,North,11,3.0,4.6,100,0.00,CLR,,0.09,WeatherDisplay:10.37,2013-01-08 14:57:00,
2013-01-08 09:02:00,61.2,61.2,29.91,North,7,3.1,3.5,100,0.00,CLR,,0.09,WeatherDisplay:10.37,2013-01-08 15:02:00,
2013-01-08 09:07:00,61.4,61.4,29.92,NNW,344,0.2,0.0,100,0.00,CLR,,0.09,WeatherDisplay:10.37,2013-01-08 15:07:00,
2013-01-08 09:12:00,61.7,61.7,29.93,NNW,344,0.0,0.0,100,0.00,CLR,,0.09,WeatherDisplay:10.37,2013-01-08 15:12:00,
2013-01-08 09:17:00,61.8,61.8,29.94,NNW,344,0.0,0.0,100,0.00,CLR,,0.09,WeatherDisplay:10.37,2013-01-08 15:17:00,
2013-01-08 09:22:00,62.1,62.1,29.95,NNW,344,0.0,0.0,100,0.00,CLR,,0.09,WeatherDisplay:10.37,2013-01-08 15:22:00,
2013-01-08 09:27:00,62.0,62.0,29.95,NNW,344,0.0,0.0,100,0.00,CLR,,0.09,WeatherDisplay:10.37,2013-01-08 15:27:00,
2013-01-08 09:32:00,62.1,62.1,29.95,NNW,344,0.0,0.0,100,0.00,CLR,,0.09,WeatherDisplay:10.37,2013-01-08 15:32:00,
2013-01-08 09:37:00,62.1,62.1,29.95,NNW,344,0.0,0.0,100,0.01,RA,,0.10,WeatherDisplay:10.37,2013-01-08 15:37:00,
2013-01-08 09:42:00,62.2,62.2,29.95,NNW,344,0.0,0.0,100,0.01,RA,,0.10,WeatherDisplay:10.37,2013-01-08 15:42:00,
2013-01-08 09:47:00,62.4,62.4,29.95,NNW,344,0.0,0.0,100,0.01,,,0.10,WeatherDisplay:10.37,2013-01-08 15:47:00,
2013-01-08 09:52:00,62.4,62.4,29.94,NE,55,1.2,1.3,100,0.01,CLR,,0.10,WeatherDisplay:10.37,2013-01-08 15:52:00,
2013-01-08 09:57:00,62.5,62.5,29.95,NE,54,0.2,1.2,100,0.01,CLR,,0.10,WeatherDisplay:10.37,2013-01-08 15:57:00,
2013-01-08 10:02:00,62.4,62.4,29.94,ENE,58,2.2,3.2,100,0.01,CLR,,0.10,WeatherDisplay:10.37,2013-01-08 16:02:00,
2013-01-08 10:07:00,62.4,62.4,29.93,East,85,4.0,4.7,100,0.01,CLR,,0.10,WeatherDisplay:10.37,2013-01-08 16:07:00,
2013-01-08 10:12:00,62.2,62.2,29.93,NE,54,1.9,4.6,100,0.02,RA,,0.11,WeatherDisplay:10.37,2013-01-08 16:12:00,
2013-01-08 10:17:00,62.0,62.0,29.93,ENE,65,3.2,4.6,100,0.02,RA,,0.11,WeatherDisplay:10.37,2013-01-08 16:17:00,
2013-01-08 10:22:00,61.8,61.8,29.93,NE,37,3.3,3.5,100,0.02,CLR,,0.11,WeatherDisplay:10.37,2013-01-08 16:22:00,
2013-01-08 10:27:00,61.5,61.5,29.91,East,85,3.1,5.8,100,0.02,CLR,,0.11,WeatherDisplay:10.37,2013-01-08 16:27:00,
2013-01-08 10:32:00,61.1,61.1,29.91,NE,56,0.0,0.0,100,0.02,CLR,,0.11,WeatherDisplay:10.37,2013-01-08 16:32:00,
2013-01-08 10:37:00,61.3,61.3,29.91,East,79,1.0,2.3,100,0.01,CLR,,0.11,WeatherDisplay:10.37,2013-01-08 16:37:00,
2013-01-08 10:42:00,61.5,61.5,29.91,East,79,3.6,4.6,100,0.01,CLR,,0.11,WeatherDisplay:10.37,2013-01-08 16:42:00,
2013-01-08 10:47:00,61.9,61.9,29.91,East,85,3.9,6.9,100,0.01,CLR,,0.11,WeatherDisplay:10.37,2013-01-08 16:47:00,
2013-01-08 10:52:00,62.2,62.2,29.91,ENE,75,3.4,5.8,100,0.01,CLR,,0.11,WeatherDisplay:10.37,2013-01-08 16:52:00,
2013-01-08 10:57:00,62.8,62.8,29.90,ESE,104,3.5,4.6,100,0.01,CLR,,0.11,WeatherDisplay:10.37,2013-01-08 16:57:00,
2013-01-08 11:02:00,63.0,63.0,29.88,ENE,62,3.2,5.8,100,0.01,CLR,,0.11,WeatherDisplay:10.37,2013-01-08 17:02:00,
2013-01-08 11:07:00,62.7,62.7,29.88,NNE,18,0.5,4.6,100,0.01,CLR,,0.11,WeatherDisplay:10.37,2013-01-08 17:07:00,
2013-01-08 11:12:00,63.2,63.2,29.88,ENE,75,3.6,4.6,100,0.00,CLR,,0.11,WeatherDisplay:10.37,2013-01-08 17:12:00,
2013-01-08 11:17:00,63.6,63.6,29.88,East,97,4.3,9.2,100,0.00,CLR,,0.11,WeatherDisplay:10.37,2013-01-08 17:17:00,
2013-01-08 11:22:00,64.2,64.2,29.89,East,99,4.2,6.4,100,0.00,CLR,,0.11,WeatherDisplay:10.37,2013-01-08 17:22:00,
2013-01-08 11:27:00,64.4,64.4,29.89,ESE,123,3.8,5.8,100,0.00,CLR,,0.11,WeatherDisplay:10.37,2013-01-08 17:27:00,
2013-01-08 11:32:00,64.5,64.5,29.89,SE,143,2.6,5.8,100,0.00,CLR,,0.11,WeatherDisplay:10.37,2013-01-08 17:32:00,
2013-01-08 11:37:00,64.7,64.7,29.89,ESE,109,2.7,4.6,100,0.00,CLR,,0.11,WeatherDisplay:10.37,2013-01-08 17:37:00,
2013-01-08 11:42:00,64.8,64.8,29.89,SSE,154,1.5,4.6,100,0.01,RA,,0.12,WeatherDisplay:10.37,2013-01-08 17:42:00,
2013-01-08 11:47:00,65.0,65.0,29.89,NE,49,0.2,3.5,100,0.01,RA,,0.12,WeatherDisplay:10.37,2013-01-08 17:47:00,
2013-01-08 11:52:00,65.4,65.4,29.89,East,90,2.5,3.5,100,0.01,,,0.12,WeatherDisplay:10.37,2013-01-08 17:52:00,
2013-01-08 11:57:00,65.7,65.7,29.88,ESE,106,0.6,2.3,100,0.01,CLR,,0.12,WeatherDisplay:10.37,2013-01-08 17:57:00,
2013-01-08 12:02:00,65.9,65.9,29.88,East,99,1.2,2.3,100,0.01,CLR,,0.12,WeatherDisplay:10.37,2013-01-08 18:02:00,
2013-01-08 12:07:00,66.1,66.1,29.87,SE,141,4.1,4.6,100,0.01,CLR,,0.12,WeatherDisplay:10.37,2013-01-08 18:07:00,
2013-01-08 12:12:00,66.2,66.2,29.87,ESE,103,4.5,5.5,100,0.01,CLR,,0.12,WeatherDisplay:10.37,2013-01-08 18:12:00,
2013-01-08 12:17:00,66.1,66.1,29.87,SSE,155,2.4,4.6,100,0.01,CLR,,0.12,WeatherDisplay:10.37,2013-01-08 18:17:00,
2013-01-08 12:22:00,66.0,66.0,29.87,SE,128,2.6,5.8,100,0.01,CLR,,0.12,WeatherDisplay:10.37,2013-01-08 18:22:00,
2013-01-08 12:27:00,65.9,65.9,29.88,SSE,161,2.1,5.8,100,0.01,CLR,,0.12,WeatherDisplay:10.37,2013-01-08 18:27:00,
2013-01-08 12:33:00,65.7,65.7,29.87,SSE,154,1.3,2.3,100,0.01,CLR,,0.12,WeatherDisplay:10.37,2013-01-08 18:33:00,
2013-01-08 12:38:00,65.9,65.9,29.86,SE,124,1.6,4.6,100,0.01,CLR,,0.12,WeatherDisplay:10.37,2013-01-08 18:38:00,
2013-01-08 12:43:00,66.2,66.2,29.86,SSE,148,4.3,6.9,100,0.00,CLR,,0.12,WeatherDisplay:10.37,2013-01-08 18:43:00,
2013-01-08 12:48:00,66.7,66.7,29.86,SE,131,1.5,3.5,100,0.00,CLR,,0.12,WeatherDisplay:10.37,2013-01-08 18:48:00,
2013-01-08 12:53:00,66.8,66.8,29.85,ESE,114,2.3,3.5,100,0.00,CLR,,0.12,WeatherDisplay:10.37,2013-01-08 18:53:00,
2013-01-08 12:58:00,66.4,66.4,29.84,SE,141,3.6,5.2,100,0.00,CLR,,0.12,WeatherDisplay:10.37,2013-01-08 18:58:00,
2013-01-08 13:03:00,66.3,66.3,29.84,East,79,1.3,3.5,100,0.00,CLR,,0.12,WeatherDisplay:10.37,2013-01-08 19:03:00,
2013-01-08 13:08:00,66.4,66.4,29.84,East,86,1.0,2.3,100,0.00,CLR,,0.12,WeatherDisplay:10.37,2013-01-08 19:08:00,
2013-01-08 13:13:00,66.7,66.7,29.83,SE,143,1.2,3.5,100,0.00,CLR,,0.12,WeatherDisplay:10.37,2013-01-08 19:13:00,
2013-01-08 13:18:00,66.9,66.9,29.83,East,99,3.2,5.8,100,0.00,CLR,,0.12,WeatherDisplay:10.37,2013-01-08 19:18:00,
2013-01-08 13:23:00,66.5,66.5,29.83,SSE,167,3.0,4.6,100,0.00,CLR,,0.12,WeatherDisplay:10.37,2013-01-08 19:23:00,
2013-01-08 13:28:00,66.4,66.4,29.82,SSW,193,2.5,4.6,100,0.00,CLR,,0.12,WeatherDisplay:10.37,2013-01-08 19:28:00,
2013-01-08 13:33:00,66.2,66.2,29.82,SE,137,3.4,5.8,100,0.00,CLR,,0.12,WeatherDisplay:10.37,2013-01-08 19:33:00,
2013-01-08 13:38:00,66.1,66.1,29.83,SSW,193,5.2,8.1,100,0.00,CLR,,0.12,WeatherDisplay:10.37,2013-01-08 19:38:00,
2013-01-08 13:43:00,65.9,65.9,29.83,SSW,195,3.6,5.8,100,0.00,CLR,,0.12,WeatherDisplay:10.37,2013-01-08 19:43:00,
2013-01-08 13:48:00,66.0,66.0,29.82,SSW,199,3.3,5.8,100,0.00,CLR,,0.12,WeatherDisplay:10.37,2013-01-08 19:48:00,
2013-01-08 13:53:00,65.8,65.8,29.83,WSW,239,3.6,5.8,100,0.00,CLR,,0.12,WeatherDisplay:10.37,2013-01-08 19:53:00,
2013-01-08 13:58:00,65.9,65.9,29.83,South,188,4.1,6.9,100,0.01,RA,,0.13,WeatherDisplay:10.37,2013-01-08 19:58:00,
2013-01-08 14:03:00,65.9,65.9,29.82,ESE,117,1.4,3.5,100,0.01,RA,,0.13,WeatherDisplay:10.37,2013-01-08 20:03:00,
2013-01-08 14:08:00,66.0,66.0,29.82,SE,128,0.0,0.0,100,0.01,,,0.13,WeatherDisplay:10.37,2013-01-08 20:08:00,
2013-01-08 14:13:00,66.2,66.2,29.82,SSE,147,1.7,3.5,100,0.01,CLR,,0.13,WeatherDisplay:10.37,2013-01-08 20:13:00,